Regional Weather Roundup
Issued by NWS

Home | Current Version | Previous Version | Graphics & Text | Print | Product List | Glossary On
Versions: 1 2 3 4 5 6 7 8 9 10 11 12 13 14 15 16 17 18 19 20 21 22 23 24 25 26 27 28 29 30 31 32 33 34 35 36 37 38 39 40 41 42 43 44 45 46 47 48 49 50
000
ASUS43 KIND 101509
RWRIN

WEATHER ROUNDUP FOR INDIANA
NATIONAL WEATHER SERVICE INDIANAPOLIS IN
1000 AM EST WED FEB 10 2016

NOTE: "FAIR" INDICATES FEW OR NO CLOUDS BELOW 12,000 FEET WITH NO
SIGNIFICANT WEATHER AND/OR OBSTRUCTIONS TO VISIBILITY.

* - STATION DOES NOT REPORT WEATHER SUCH AS PRECIPITATION OR FOG.

+ - STATION NOT QUALITY CONTROLLED BY THE NATIONAL WEATHER SERVICE.
    USE DATA WITH CAUTION...ESPECIALLY DEWPOINT AND RELATIVE
    HUMIDITY OBSERVATIONS.

INZ001>003-010>013-019-020-101600-
NORTHWEST INDIANA

CITY           SKY/WX    TMP DP  RH WIND       PRES   REMARKS
GARY /AIRPORT/ PTSUNNY   14   1  57 W18       30.04R WCI  -3
KNOX *+        SUNNY     14   5  67 W18       29.98R WCI  -3
LA PORTE +     LGT SNOW  18  12  78 W14G22    29.97R WCI   4
MICHIGAN CITY+ LGT SNOW  19  10  68 W14       29.98R WCI   6
MONTICELLO +   SUNNY     12   1  63 W12G18    30.02R WCI  -2
RENSSELAER +   SUNNY     14   3  62 W15       30.03R WCI  -1
VALPARAISO     LGT SNOW  13   5  70 W16       30.00R WCI  -3

$$

LMZ046-743>745-101600-
SOUTHERN LAKE MICHIGAN

STATION/POSITION TIME  TEMP    WIND        PRES    WAVE
                       AIR SEA DIR/SP/G            HT
                 (UTC) (F)     (DEG/KT/KT) (MB)    (FT)
BURNS HARBOR     1403   17     300/ 20     1015.9R
MICHIGAN CITY    1400   17     280/ 19/ 23   N/A

$$

INZ004-005-014>016-021>024-101600-
NORTH CENTRAL INDIANA

CITY           SKY/WX    TMP DP  RH WIND       PRES   REMARKS
ELKHART        FLURRIES  19  12  73 W9        29.93R WCI   9
GOSHEN         FLURRIES  19  12  74 W15       29.92R WCI   5
LOGANSPORT +   PTSUNNY   12   3  67 W12       30.01R WCI  -2
PERU/GRISSOM   SUNNY     12   5  74 W16       29.97R WCI  -5
ROCHESTER +    PTSUNNY   16   3  57 W10G16    29.97R WCI   3
SOUTH BEND     LGT SNOW  17  13  84 NW18G24   29.94R FOG     WCI   1
WARSAW +       PTSUNNY   16  10  79 W14       29.93R WCI   1

$$

INZ006>009-017-018-025>027-101600-
NORTHEAST INDIANA

CITY           SKY/WX    TMP DP  RH WIND       PRES   REMARKS
ANGOLA *+        N/A     18  14  86 NW8       29.85R WCI   7
AUBURN +       LGT SNOW  23  16  74 W16       29.89R WCI  10
FORT WAYNE     LGT SNOW  19  11  70 W21       29.92R WCI   3
HUNTINGTON +   LGT SNOW  14   6  70 W14G21    29.94R WCI  -1

$$

INZ028-029-035-036-043>045-051>053-101600-
WEST CENTRAL INDIANA

CITY           SKY/WX    TMP DP  RH WIND       PRES   REMARKS
GREENCASTLE +  MOSUNNY   12   0  57 W10G17    30.07R WCI  -1
LAFAYETTE      SUNNY     11   4  73 W13G23    30.05R WCI  -4
TERRE HAUTE    MOSUNNY   12   3  67 NW17      30.12R WCI  -5

$$

INZ030>032-037>040-046>048-054>057-064-065-101600-
CENTRAL INDIANA

CITY           SKY/WX    TMP DP  RH WIND       PRES   REMARKS
ANDERSON       MOSUNNY   12   7  79 W12G23    29.98R FOG     WCI  -2
FISHERS *+     CLOUDY    12   7  79 W13       30.02R WCI  -3
FRANKFORT +    SUNNY     12   0  57 W14       30.03R WCI  -3
GREENWOOD *+   PTSUNNY   14   7  73 W13G21    30.04R WCI   0
INDIANAPOLIS   PTSUNNY   12   4  70 W16       30.03R WCI  -5
-EAGLE CREEK   CLOUDY    12   5  73 W14       30.03R WCI  -3
KOKOMO *+      SUNNY     12   3  67 W17G23    29.99R WCI  -5
MARION +       CLOUDY    13   1  60 W14G20    29.98R WCI  -2
MT COMFORT *+  CLOUDY    12   5  73 W15       30.01R WCI  -4
SHELBYVILLE    CLOUDY    14   5  67 W17       30.02R WCI  -3
ZIONSVILLE +   MOSUNNY   10   4  74 W15G22    30.02R WCI  -6

$$

INZ033-034-041-042-049-050-058-059-101600-
EAST CENTRAL INDIANA

CITY           SKY/WX    TMP DP  RH WIND       PRES   REMARKS
MUNCIE         LGT SNOW  14   7  73 W14       29.97R WCI  -1

$$

INZ060-061-067>069-081>083-085>088-101600-
SOUTHWEST INDIANA

CITY           SKY/WX    TMP DP  RH WIND       PRES   REMARKS
EVANSVILLE     MOSUNNY   18   6  59 W12G18    30.19R WCI   5
HUNTINGBURG *+ CLOUDY    16   7  67 W14       30.16R WCI   1
WASHINGTON +   MOSUNNY   14   5  67 W10G17    30.15R WCI   2

$$

INZ062-063-066-070>080-084-089>092-101600-
SOUTH CENTRAL AND SOUTHEAST INDIANA

CITY           SKY/WX    TMP DP  RH WIND       PRES   REMARKS
BEDFORD +      PTSUNNY   14   7  73 W9        30.10R WCI   2
BLOOMINGTON    CLOUDY    12   4  70 W9        30.07R WCI   0
MADISON *+     CLOUDY    18   9  68 W12G17    30.06R WCI   5
NORTH VERNON + FLURRIES  16   9  73 W10       30.04R WCI   3
SEYMOUR +      FLURRIES  18   9  68 W17G23    30.08R WCI   2

$$




USA.gov is the U.S. government's official web portal to all federal, state and local government web resources and services.